Location: Peterborough
(44.3091°N, 78.3197°W)
Time: 02:53:26
(UTC-04:00)

Tiros 1 despin weight - Pass Details

Date: 30 March 2023
Orbit: 586 x 632 km, 48.2° (Epoch: 08 June)

Event Time Altitude Azimuth Distance (km) Brightness Sun altitude
Rises 02:11:44 0° 290° (WNW) 2,830 - -40.5°
Reaches altitude 10° 02:14:08 10° 282° (WNW) 1,933 - -40.4°
Maximum altitude 02:18:13 37° 215° (SW) 939 - -40.1°
Drops below altitude 10° 02:22:20 10° 148° (SSE) 1,952 - -39.9°
Sets 02:24:46 0° 140° (SE) 2,862 - -39.7°
